| time (UTC) | temp F | wind direction | speed MPH | gust MPH | rain 1hr in | rain 24hr in | rain mn in | humidity % | barometer mb |
| 20260508143531 | 60 | 155 | 1.0 | 6.0 | 0.00 | 0.00 | 0.00 | 76 | 1010.7 |
| 20260508143040 | 60 | 174 | 3.0 | 6.0 | 0.00 | 0.00 | 0.00 | 76 | 1010.7 |
| 20260508142529 | 61 | 156 | 2.0 | 5.0 | 0.00 | 0.00 | 0.00 | 78 | 1010.8 |
| 20260508142029 | 60 | 174 | 1.0 | 5.0 | 0.00 | 0.00 | 0.00 | 79 | 1010.8 |
| 20260508141608 | 60 | 126 | 1.0 | 4.0 | 0.00 | 0.00 | 0.00 | 79 | 1010.7 |
| 20260508141029 | 60 | 196 | 1.0 | 4.0 | 0.00 | 0.00 | 0.00 | 79 | 1010.6 |
| 20260508140530 | 60 | 236 | 1.0 | 4.0 | 0.00 | 0.00 | 0.00 | 79 | 1010.7 |
| 20260508140037 | 59 | 224 | 1.0 | 4.0 | 0.00 | 0.00 | 0.00 | 81 | 1010.7 |
| 20260508135529 | 58 | 158 | 2.0 | 4.0 | 0.00 | 0.00 | 0.00 | 82 | 1010.7 |
| 20260508135028 | 58 | 163 | 0.0 | 4.0 | 0.00 | 0.00 | 0.00 | 82 | 1010.8 |
| 20260508134554 | 57 | 148 | 1.0 | 4.0 | 0.00 | 0.00 | 0.00 | 84 | 1010.8 |
| 20260508134028 | 56 | 202 | 1.0 | 5.0 | 0.00 | 0.00 | 0.00 | 85 | 1010.8 |
| 20260508133530 | 56 | 182 | 2.0 | 5.0 | 0.00 | 0.00 | 0.00 | 84 | 1010.9 |
| 20260508133044 | 56 | 169 | 2.0 | 5.0 | 0.00 | 0.00 | 0.00 | 84 | 1010.9 |
| 20260508132529 | 56 | 141 | 1.0 | 4.0 | 0.00 | 0.00 | 0.00 | 84 | 1011.0 |
| 20260508132029 | 56 | 224 | 1.0 | 4.0 | 0.00 | 0.00 | 0.00 | 85 | 1011.0 |
| 20260508131547 | 55 | 206 | 1.0 | 4.0 | 0.00 | 0.00 | 0.00 | 84 | 1010.8 |
| 20260508131028 | 55 | 160 | 1.0 | 3.0 | 0.00 | 0.00 | 0.00 | 84 | 1010.8 |
| 20260508130530 | 55 | 156 | 0.0 | 1.0 | 0.00 | 0.00 | 0.00 | 86 | 1010.9 |
| 20260508130046 | 53 | 172 | 0.0 | 3.0 | 0.00 | 0.00 | 0.00 | 87 | 1010.8 |
| 20260508125526 | 53 | 202 | 1.0 | 3.0 | 0.00 | 0.00 | 0.00 | 85 | 1010.7 |
| 20260508125029 | 53 | 120 | 1.0 | 3.0 | 0.00 | 0.00 | 0.00 | 86 | 1010.8 |
| 20260508124545 | 52 | 105 | 0.0 | 2.0 | 0.00 | 0.00 | 0.00 | 87 | 1010.7 |
| 20260508124030 | 51 | 0 | 0.0 | 2.0 | 0.00 | 0.00 | 0.00 | 89 | 1010.8 |
| 20260508123529 | 50 | 94 | 0.0 | 2.0 | 0.00 | 0.00 | 0.00 | 91 | 1010.9 |
| 20260508123047 | 49 | 0 | 0.0 | 1.0 | 0.00 | 0.00 | 0.00 | 93 | 1010.8 |
| 20260508122528 | 49 | 0 | 0.0 | 1.0 | 0.00 | 0.00 | 0.00 | 93 | 1010.7 |
| 20260508122026 | 48 | 0 | 0.0 | 0.0 | 0.00 | 0.00 | 0.00 | 93 | 1010.8 |
| 20260508121541 | 48 | 0 | 0.0 | 1.0 | 0.00 | 0.00 | 0.00 | 93 | 1010.6 |
| 20260508121027 | 48 | 0 | 0.0 | 1.0 | 0.00 | 0.00 | 0.00 | 93 | 1010.7 |
| 20260508120530 | 48 | 0 | 0.0 | 1.0 | 0.00 | 0.00 | 0.00 | 93 | 1010.7 |
| 20260508120043 | 48 | 0 | 0.0 | 1.0 | 0.00 | 0.00 | 0.00 | 93 | 1010.7 |
| 20260508115529 | 48 | 0 | 0.0 | 0.0 | 0.00 | 0.00 | 0.00 | 93 | 1010.6 |
| 20260508115028 | 47 | 0 | 0.0 | 0.0 | 0.00 | 0.00 | 0.00 | 93 | 1010.6 |
| 20260508114541 | 47 | 0 | 0.0 | 0.0 | 0.00 | 0.00 | 0.00 | 93 | 1010.7 |
| 20260508114029 | 47 | 0 | 0.0 | 0.0 | 0.00 | 0.00 | 0.00 | 93 | 1010.7 |
| 20260508113529 | 47 | 0 | 0.0 | 0.0 | 0.00 | 0.00 | 0.00 | 93 | 1010.5 |
| 20260508113052 | 47 | 0 | 0.0 | 2.0 | 0.00 | 0.00 | 0.00 | 93 | 1010.7 |
| 20260508112526 | 47 | 0 | 0.0 | 2.0 | 0.00 | 0.00 | 0.00 | 93 | 1010.6 |
| 20260508112026 | 46 | 348 | 0.0 | 2.0 | 0.00 | 0.00 | 0.00 | 93 | 1010.5 |
| 20260508111540 | 46 | 0 | 0.0 | 1.0 | 0.00 | 0.00 | 0.00 | 93 | 1010.4 |
| 20260508111030 | 46 | 0 | 0.0 | 1.0 | 0.00 | 0.00 | 0.00 | 93 | 1010.5 |
| 20260508110530 | 46 | 226 | 0.0 | 1.0 | 0.00 | 0.00 | 0.00 | 93 | 1010.3 |
| 20260508110039 | 46 | 0 | 0.0 | 0.0 | 0.00 | 0.00 | 0.00 | 93 | 1010.3 |
| 20260508105529 | 46 | 0 | 0.0 | 0.0 | 0.00 | 0.00 | 0.00 | 93 | 1010.1 |
| 20260508105027 | 46 | 0 | 0.0 | 0.0 | 0.00 | 0.00 | 0.00 | 93 | 1010.1 |
| 20260508104541 | 46 | 0 | 0.0 | 0.0 | 0.00 | 0.00 | 0.00 | 93 | 1010.2 |
| 20260508104026 | 46 | 0 | 0.0 | 0.0 | 0.00 | 0.00 | 0.00 | 93 | 1010.2 |
| 20260508103527 | 45 | 0 | 0.0 | 0.0 | 0.00 | 0.00 | 0.00 | 93 | 1010.2 |
| 20260508103042 | 45 | 0 | 0.0 | 0.0 | 0.00 | 0.00 | 0.00 | 93 | 1010.5 |
| 20260508102530 | 45 | 0 | 0.0 | 1.0 | 0.00 | 0.00 | 0.00 | 93 | 1010.7 |
| 20260508102027 | 45 | 0 | 0.0 | 1.0 | 0.00 | 0.00 | 0.00 | 93 | 1010.7 |
| 20260508101541 | 45 | 211 | 0.0 | 1.0 | 0.00 | 0.00 | 0.00 | 92 | 1010.6 |
| 20260508101027 | 45 | 0 | 0.0 | 0.0 | 0.00 | 0.00 | 0.00 | 92 | 1010.7 |
| 20260508100528 | 45 | 0 | 0.0 | 0.0 | 0.00 | 0.00 | 0.00 | 92 | 1010.6 |
| 20260508100040 | 45 | 0 | 0.0 | 0.0 | 0.00 | 0.00 | 0.00 | 92 | 1010.5 |
| 20260508095528 | 45 | 0 | 0.0 | 0.0 | 0.00 | 0.00 | 0.00 | 92 | 1010.8 |
| 20260508095026 | 45 | 0 | 0.0 | 0.0 | 0.00 | 0.00 | 0.00 | 92 | 1010.8 |
| 20260508094541 | 45 | 0 | 0.0 | 0.0 | 0.00 | 0.00 | 0.00 | 92 | 1010.8 |
| 20260508094028 | 45 | 0 | 0.0 | 0.0 | 0.00 | 0.00 | 0.00 | 92 | 1010.5 |
| 20260508093528 | 45 | 0 | 0.0 | 0.0 | 0.00 | 0.00 | 0.00 | 92 | 1010.6 |
| 20260508093047 | 45 | 0 | 0.0 | 0.0 | 0.00 | 0.00 | 0.00 | 92 | 1010.8 |
| 20260508092528 | 45 | 0 | 0.0 | 0.0 | 0.00 | 0.00 | 0.00 | 92 | 1010.8 |
| 20260508092028 | 45 | 0 | 0.0 | 0.0 | 0.00 | 0.00 | 0.00 | 93 | 1010.8 |
| 20260508091549 | 45 | 0 | 0.0 | 0.0 | 0.00 | 0.00 | 0.00 | 93 | 1010.9 |
| 20260508091027 | 44 | 0 | 0.0 | 0.0 | 0.00 | 0.00 | 0.00 | 93 | 1010.9 |
| 20260508090527 | 44 | 0 | 0.0 | 0.0 | 0.00 | 0.00 | 0.00 | 93 | 1010.9 |
| 20260508090042 | 44 | 0 | 0.0 | 0.0 | 0.00 | 0.00 | 0.00 | 93 | 1011.0 |
| 20260508085526 | 44 | 0 | 0.0 | 0.0 | 0.00 | 0.00 | 0.00 | 93 | 1011.0 |
| 20260508085028 | 44 | 0 | 0.0 | 0.0 | 0.00 | 0.00 | 0.00 | 93 | 1011.1 |
| 20260508084535 | 44 | 0 | 0.0 | 0.0 | 0.00 | 0.00 | 0.00 | 93 | 1010.9 |
| 20260508084027 | 44 | 0 | 0.0 | 0.0 | 0.00 | 0.00 | 0.00 | 93 | 1010.8 |
| 20260508083528 | 43 | 0 | 0.0 | 0.0 | 0.00 | 0.00 | 0.00 | 93 | 1010.9 |
| 20260508083104 | 43 | 0 | 0.0 | 0.0 | 0.00 | 0.00 | 0.00 | 92 | 1010.9 |
| 20260508082528 | 43 | 0 | 0.0 | 0.0 | 0.00 | 0.00 | 0.00 | 91 | 1010.9 |
| 20260508082028 | 44 | 0 | 0.0 | 0.0 | 0.00 | 0.00 | 0.00 | 91 | 1010.9 |
| 20260508081541 | 44 | 0 | 0.0 | 0.0 | 0.00 | 0.00 | 0.00 | 91 | 1011.0 |
| 20260508081028 | 44 | 0 | 0.0 | 0.0 | 0.00 | 0.00 | 0.00 | 91 | 1011.0 |
| 20260508080530 | 44 | 0 | 0.0 | 0.0 | 0.00 | 0.00 | 0.00 | 91 | 1011.1 |
| 20260508080040 | 44 | 0 | 0.0 | 0.0 | 0.00 | 0.00 | 0.00 | 91 | 1011.0 |
| 20260508075527 | 44 | 0 | 0.0 | 0.0 | 0.00 | 0.00 | 0.00 | 90 | 1011.1 |
| 20260508075026 | 44 | 0 | 0.0 | 0.0 | 0.00 | 0.00 | 0.00 | 89 | 1011.1 |
| 20260508074549 | 45 | 0 | 0.0 | 0.0 | 0.00 | 0.00 | 0.00 | 89 | 1011.0 |
| 20260508074027 | 45 | 0 | 0.0 | 0.0 | 0.00 | 0.00 | 0.00 | 89 | 1011.1 |
| 20260508073531 | 46 | 0 | 0.0 | 0.0 | 0.00 | 0.00 | 0.00 | 89 | 1011.2 |
| 20260508073041 | 46 | 0 | 0.0 | 0.0 | 0.00 | 0.00 | 0.00 | 88 | 1011.3 |
| 20260508072528 | 46 | 0 | 0.0 | 1.0 | 0.00 | 0.00 | 0.00 | 88 | 1011.2 |
| 20260508072028 | 46 | 0 | 0.0 | 1.0 | 0.00 | 0.00 | 0.00 | 89 | 1011.3 |
| 20260508071543 | 46 | 0 | 0.0 | 0.0 | 0.00 | 0.00 | 0.00 | 89 | 1011.3 |
| 20260508071028 | 46 | 0 | 0.0 | 1.0 | 0.00 | 0.00 | 0.00 | 89 | 1011.3 |
| 20260508070527 | 46 | 0 | 0.0 | 1.0 | 0.00 | 0.00 | 0.00 | 89 | 1011.2 |
| 20260508070043 | 46 | 0 | 0.0 | 0.0 | 0.00 | 0.00 | 0.00 | 89 | 1011.4 |
| 20260508065527 | 46 | 0 | 0.0 | 2.0 | 0.00 | 0.00 | 0.00 | 89 | 1011.4 |
| 20260508065026 | 46 | 0 | 0.0 | 2.0 | 0.00 | 0.00 | 0.00 | 89 | 1011.4 |
| 20260508064544 | 46 | 0 | 0.0 | 0.0 | 0.00 | 0.00 | 0.00 | 89 | 1011.4 |
| 20260508064028 | 46 | 0 | 0.0 | 0.0 | 0.00 | 0.00 | 0.00 | 89 | 1011.4 |
| 20260508063527 | 46 | 0 | 0.0 | 0.0 | 0.00 | 0.00 | 0.00 | 88 | 1011.4 |
| 20260508063040 | 46 | 0 | 0.0 | 0.0 | 0.00 | 0.00 | 0.00 | 88 | 1011.4 |
| 20260508062529 | 46 | 0 | 0.0 | 0.0 | 0.00 | 0.00 | 0.00 | 89 | 1011.4 |
| 20260508062030 | 46 | 0 | 0.0 | 1.0 | 0.00 | 0.00 | 0.00 | 89 | 1011.4 |
| 20260508061543 | 46 | 0 | 0.0 | 1.0 | 0.00 | 0.00 | 0.00 | 89 | 1011.4 |
| 20260508061030 | 46 | 0 | 0.0 | 1.0 | 0.00 | 0.00 | 0.00 | 88 | 1011.6 |
| 20260508060530 | 46 | 0 | 0.0 | 0.0 | 0.00 | 0.00 | 0.00 | 89 | 1011.5 |
| 20260508060042 | 46 | 0 | 0.0 | 0.0 | 0.00 | 0.00 | 0.00 | 88 | 1011.5 |
| 20260508055533 | 46 | 0 | 0.0 | 0.0 | 0.00 | 0.00 | 0.00 | 87 | 1011.5 |
| 20260508055031 | 47 | 0 | 0.0 | 0.0 | 0.00 | 0.00 | 0.00 | 87 | 1011.5 |
| 20260508054542 | 47 | 0 | 0.0 | 0.0 | 0.00 | 0.00 | 0.00 | 86 | 1011.4 |
| 20260508054030 | 47 | 0 | 0.0 | 0.0 | 0.00 | 0.00 | 0.00 | 87 | 1011.6 |
| 20260508053530 | 47 | 0 | 0.0 | 1.0 | 0.00 | 0.00 | 0.00 | 86 | 1011.5 |
| 20260508053037 | 47 | 0 | 0.0 | 1.0 | 0.00 | 0.00 | 0.00 | 86 | 1011.4 |
| 20260508052533 | 47 | 0 | 0.0 | 1.0 | 0.00 | 0.00 | 0.00 | 86 | 1011.3 |
| 20260508052033 | 47 | 0 | 0.0 | 1.0 | 0.00 | 0.00 | 0.00 | 86 | 1011.3 |
| 20260508051541 | 47 | 0 | 0.0 | 1.0 | 0.00 | 0.00 | 0.00 | 85 | 1011.5 |
| 20260508051030 | 47 | 0 | 0.0 | 1.0 | 0.00 | 0.00 | 0.00 | 85 | 1011.3 |
| 20260508050530 | 48 | 0 | 0.0 | 1.0 | 0.00 | 0.00 | 0.00 | 84 | 1011.2 |
| 20260508050042 | 48 | 0 | 0.0 | 2.0 | 0.00 | 0.00 | 0.00 | 84 | 1011.2 |
| 20260508045536 | 48 | 0 | 0.0 | 2.0 | 0.00 | 0.00 | 0.00 | 84 | 1011.3 |
| 20260508045030 | 48 | 143 | 0.0 | 2.0 | 0.00 | 0.00 | 0.00 | 83 | 1011.2 |
| 20260508044545 | 48 | 0 | 0.0 | 1.0 | 0.00 | 0.00 | 0.00 | 83 | 1011.2 |
| 20260508044028 | 49 | 0 | 0.0 | 2.0 | 0.00 | 0.00 | 0.00 | 83 | 1011.4 |
| 20260508043532 | 49 | 0 | 0.0 | 2.0 | 0.00 | 0.00 | 0.00 | 82 | 1011.2 |
| 20260508043045 | 49 | 0 | 0.0 | 1.0 | 0.00 | 0.00 | 0.00 | 82 | 1011.4 |
| 20260508042531 | 49 | 0 | 0.0 | 1.0 | 0.00 | 0.00 | 0.00 | 82 | 1011.3 |
| 20260508042030 | 50 | 0 | 0.0 | 1.0 | 0.00 | 0.00 | 0.00 | 81 | 1011.3 |
| 20260508041544 | 50 | 38 | 0.0 | 2.0 | 0.00 | 0.00 | 0.00 | 80 | 1011.1 |
| 20260508041032 | 50 | 0 | 0.0 | 2.0 | 0.00 | 0.00 | 0.00 | 80 | 1011.2 |
| 20260508040531 | 50 | 29 | 0.0 | 1.0 | 0.00 | 0.00 | 0.00 | 80 | 1011.2 |
| 20260508040044 | 50 | 0 | 0.0 | 2.0 | 0.00 | 0.00 | 0.00 | 80 | 1011.0 |
| 20260508035531 | 50 | 0 | 0.0 | 2.0 | 0.00 | 0.00 | 0.00 | 79 | 1010.8 |
| 20260508035032 | 51 | 358 | 1.0 | 2.0 | 0.00 | 0.00 | 0.00 | 79 | 1010.7 |
| 20260508034544 | 51 | 236 | 0.0 | 2.0 | 0.00 | 0.00 | 0.00 | 79 | 1010.8 |
| 20260508034030 | 51 | 244 | 0.0 | 4.0 | 0.00 | 0.00 | 0.00 | 79 | 1010.8 |
| 20260508033529 | 51 | 240 | 1.0 | 4.0 | 0.00 | 0.00 | 0.00 | 78 | 1010.7 |
| 20260508033044 | 51 | 190 | 1.0 | 4.0 | 0.00 | 0.00 | 0.00 | 78 | 1010.7 |
| 20260508032529 | 51 | 0 | 1.0 | 4.0 | 0.00 | 0.00 | 0.00 | 78 | 1010.9 |
| 20260508032028 | 51 | 213 | 0.0 | 1.0 | 0.00 | 0.00 | 0.00 | 77 | 1010.7 |
| 20260508031541 | 51 | 220 | 0.0 | 3.0 | 0.00 | 0.00 | 0.00 | 76 | 1010.8 |
| 20260508031030 | 51 | 233 | 0.0 | 3.0 | 0.00 | 0.00 | 0.00 | 76 | 1010.8 |
| 20260508030530 | 51 | 205 | 1.0 | 3.0 | 0.00 | 0.00 | 0.00 | 75 | 1010.7 |
| 20260508030046 | 51 | 219 | 1.0 | 3.0 | 0.00 | 0.00 | 0.00 | 75 | 1010.7 |
| 20260508025532 | 52 | 214 | 0.0 | 2.0 | 0.00 | 0.00 | 0.00 | 73 | 1010.6 |
| 20260508025030 | 52 | 0 | 0.0 | 2.0 | 0.00 | 0.00 | 0.00 | 73 | 1010.6 |
| 20260508024541 | 52 | 219 | 1.0 | 2.0 | 0.00 | 0.00 | 0.00 | 73 | 1010.4 |
| 20260508024030 | 52 | 199 | 0.0 | 3.0 | 0.00 | 0.00 | 0.00 | 72 | 1010.4 |
| 20260508023530 | 52 | 0 | 0.0 | 3.0 | 0.00 | 0.00 | 0.00 | 72 | 1010.5 |
| 20260508023036 | 52 | 234 | 0.0 | 3.0 | 0.00 | 0.00 | 0.00 | 72 | 1010.5 |
| 20260508022531 | 52 | 235 | 0.0 | 3.0 | 0.00 | 0.00 | 0.00 | 71 | 1010.5 |
| 20260508022033 | 52 | 174 | 0.0 | 3.0 | 0.00 | 0.00 | 0.00 | 71 | 1010.4 |
| 20260508021548 | 51 | 229 | 0.0 | 3.0 | 0.00 | 0.00 | 0.00 | 71 | 1010.4 |
| 20260508021033 | 50 | 195 | 1.0 | 3.0 | 0.00 | 0.00 | 0.00 | 73 | 1010.5 |
| 20260508020530 | 49 | 233 | 0.0 | 3.0 | 0.00 | 0.00 | 0.00 | 77 | 1010.4 |
| 20260508020040 | 48 | 0 | 0.0 | 1.0 | 0.00 | 0.00 | 0.00 | 81 | 1010.3 |
| 20260508015530 | 47 | 0 | 0.0 | 0.0 | 0.00 | 0.00 | 0.00 | 81 | 1010.1 |
| 20260508015031 | 47 | 0 | 0.0 | 0.0 | 0.00 | 0.00 | 0.00 | 81 | 1010.1 |
| 20260508014543 | 48 | 0 | 0.0 | 0.0 | 0.00 | 0.00 | 0.00 | 80 | 1010.0 |
| 20260508014032 | 48 | 0 | 0.0 | 0.0 | 0.00 | 0.00 | 0.00 | 79 | 1010.0 |
| 20260508013530 | 48 | 0 | 0.0 | 0.0 | 0.00 | 0.00 | 0.00 | 79 | 1010.0 |
| 20260508013043 | 49 | 0 | 0.0 | 0.0 | 0.00 | 0.00 | 0.00 | 78 | 1009.8 |
| 20260508012530 | 49 | 0 | 0.0 | 0.0 | 0.00 | 0.00 | 0.00 | 77 | 1009.9 |
| 20260508012030 | 50 | 0 | 0.0 | 0.0 | 0.00 | 0.00 | 0.00 | 76 | 1009.8 |
| 20260508011538 | 50 | 0 | 0.0 | 0.0 | 0.00 | 0.00 | 0.00 | 75 | 1009.6 |
| 20260508011031 | 51 | 0 | 0.0 | 0.0 | 0.00 | 0.00 | 0.00 | 74 | 1009.7 |
| 20260508010530 | 52 | 0 | 0.0 | 0.0 | 0.00 | 0.00 | 0.00 | 73 | 1009.8 |
| 20260508010042 | 52 | 0 | 0.0 | 0.0 | 0.00 | 0.00 | 0.00 | 72 | 1009.7 |
| 20260508005530 | 53 | 0 | 0.0 | 1.0 | 0.00 | 0.00 | 0.00 | 70 | 1009.6 |
| 20260508005030 | 54 | 0 | 0.0 | 1.0 | 0.00 | 0.00 | 0.00 | 70 | 1009.7 |
| 20260508004542 | 54 | 356 | 0.0 | 1.0 | 0.00 | 0.00 | 0.00 | 69 | 1009.7 |
| 20260508004029 | 55 | 0 | 0.0 | 0.0 | 0.00 | 0.00 | 0.00 | 68 | 1009.6 |
| 20260508003529 | 55 | 0 | 0.0 | 0.0 | 0.00 | 0.00 | 0.00 | 67 | 1009.6 |
| 20260508003043 | 56 | 0 | 0.0 | 1.0 | 0.00 | 0.00 | 0.00 | 64 | 1009.5 |
| 20260508002529 | 57 | 0 | 0.0 | 1.0 | 0.00 | 0.00 | 0.00 | 63 | 1009.6 |
| 20260508002030 | 57 | 356 | 0.0 | 1.0 | 0.00 | 0.00 | 0.00 | 61 | 1009.6 |
| 20260508001540 | 58 | 0 | 0.0 | 1.0 | 0.00 | 0.00 | 0.00 | 58 | 1009.7 |
| 20260508001030 | 58 | 0 | 0.0 | 1.0 | 0.00 | 0.00 | 0.00 | 59 | 1009.6 |
| 20260508000530 | 58 | 356 | 0.0 | 1.0 | 0.00 | 0.00 | 0.00 | 59 | 1009.5 |
| 20260508000041 | 58 | 0 | 0.0 | 1.0 | 0.00 | 0.00 | 0.00 | 58 | 1009.6 |
| 20260507235530 | 59 | 316 | 0.0 | 2.0 | 0.00 | 0.00 | 0.00 | 57 | 1009.6 |
| 20260507235030 | 59 | 306 | 0.0 | 3.0 | 0.00 | 0.00 | 0.00 | 58 | 1009.7 |
| 20260507234544 | 59 | 0 | 0.0 | 3.0 | 0.00 | 0.00 | 0.00 | 59 | 1009.6 |
| 20260507234029 | 59 | 117 | 1.0 | 3.0 | 0.00 | 0.00 | 0.00 | 58 | 1009.6 |
| 20260507233530 | 59 | 0 | 1.0 | 4.0 | 0.00 | 0.00 | 0.00 | 58 | 1009.7 |
| 20260507233045 | 59 | 344 | 1.0 | 5.0 | 0.00 | 0.00 | 0.00 | 57 | 1009.7 |
| 20260507232530 | 59 | 288 | 2.0 | 5.0 | 0.00 | 0.00 | 0.00 | 58 | 1009.7 |
| 20260507232029 | 59 | 299 | 1.0 | 5.0 | 0.00 | 0.00 | 0.00 | 58 | 1009.8 |
| 20260507231547 | 59 | 329 | 1.0 | 4.0 | 0.00 | 0.00 | 0.00 | 59 | 1009.8 |
| 20260507231030 | 59 | 293 | 2.0 | 5.0 | 0.00 | 0.00 | 0.00 | 58 | 1009.8 |
| 20260507230530 | 59 | 297 | 1.0 | 5.0 | 0.00 | 0.00 | 0.00 | 57 | 1009.7 |
| 20260507230047 | 59 | 44 | 2.0 | 5.0 | 0.00 | 0.00 | 0.00 | 56 | 1009.7 |
| 20260507225533 | 59 | 337 | 2.0 | 6.0 | 0.00 | 0.00 | 0.00 | 55 | 1009.5 |
| 20260507225030 | 60 | 337 | 2.0 | 9.0 | 0.00 | 0.00 | 0.00 | 53 | 1009.5 |
| 20260507224545 | 62 | 356 | 3.0 | 11.0 | 0.00 | 0.00 | 0.00 | 50 | 1009.7 |
| 20260507224030 | 62 | 165 | 2.0 | 11.0 | 0.00 | 0.00 | 0.00 | 50 | 1009.5 |
| 20260507223531 | 62 | 198 | 4.0 | 9.0 | 0.00 | 0.00 | 0.00 | 51 | 1009.4 |
| 20260507223037 | 62 | 25 | 4.0 | 12.0 | 0.00 | 0.00 | 0.00 | 52 | 1009.3 |
| 20260507222530 | 62 | 169 | 4.0 | 12.0 | 0.00 | 0.00 | 0.00 | 52 | 1009.4 |
| 20260507222029 | 63 | 250 | 4.0 | 11.0 | 0.00 | 0.00 | 0.00 | 52 | 1009.6 |
| 20260507221541 | 63 | 302 | 5.0 | 12.0 | 0.00 | 0.00 | 0.00 | 52 | 1009.6 |
| 20260507221029 | 63 | 238 | 4.0 | 13.0 | 0.00 | 0.00 | 0.00 | 53 | 1009.5 |
| 20260507220530 | 63 | 25 | 5.0 | 13.0 | 0.00 | 0.00 | 0.00 | 52 | 1009.5 |
| 20260507220041 | 63 | 202 | 4.0 | 16.0 | 0.00 | 0.00 | 0.00 | 53 | 1009.7 |
| 20260507215530 | 63 | 205 | 3.0 | 16.0 | 0.00 | 0.00 | 0.00 | 55 | 1009.5 |
| 20260507215029 | 62 | 222 | 5.0 | 13.0 | 0.00 | 0.00 | 0.00 | 55 | 1009.6 |
| 20260507214602 | 61 | 336 | 3.0 | 13.0 | 0.00 | 0.00 | 0.00 | 57 | 1009.6 |
| 20260507214033 | 61 | 11 | 5.0 | 16.0 | 0.00 | 0.00 | 0.00 | 57 | 1009.8 |
| 20260507213531 | 61 | 253 | 7.0 | 16.0 | 0.00 | 0.00 | 0.00 | 58 | 1009.9 |
| 20260507213046 | 61 | 241 | 4.0 | 15.0 | 0.00 | 0.00 | 0.00 | 59 | 1010.0 |
| 20260507212529 | 61 | 286 | 5.0 | 15.0 | 0.00 | 0.00 | 0.00 | 58 | 1010.1 |
| 20260507212030 | 60 | 226 | 7.0 | 15.0 | 0.00 | 0.00 | 0.00 | 59 | 1010.0 |
| 20260507211550 | 60 | 161 | 5.0 | 14.0 | 0.00 | 0.00 | 0.00 | 60 | 1010.2 |
| 20260507211029 | 60 | 132 | 4.0 | 15.0 | 0.00 | 0.00 | 0.00 | 59 | 1010.3 |
| 20260507210532 | 61 | 248 | 5.0 | 15.0 | 0.00 | 0.00 | 0.00 | 58 | 1010.2 |
| 20260507210053 | 61 | 200 | 7.0 | 15.0 | 0.00 | 0.00 | 0.00 | 57 | 1010.1 |
| 20260507205530 | 60 | 338 | 6.0 | 14.0 | 0.00 | 0.00 | 0.00 | 59 | 1010.2 |
| 20260507205029 | 60 | 236 | 7.0 | 21.0 | 0.00 | 0.00 | 0.00 | 59 | 1010.3 |
| 20260507204539 | 60 | 148 | 6.0 | 21.0 | 0.00 | 0.00 | 0.00 | 59 | 1010.4 |
| 20260507204032 | 60 | 200 | 3.0 | 14.0 | 0.00 | 0.00 | 0.00 | 60 | 1010.4 |
| 20260507203529 | 59 | 194 | 5.0 | 14.0 | 0.00 | 0.00 | 0.00 | 59 | 1010.4 |
| 20260507203049 | 59 | 169 | 5.0 | 14.0 | 0.00 | 0.00 | 0.00 | 59 | 1010.4 |
| 20260507202529 | 59 | 165 | 5.0 | 13.0 | 0.00 | 0.00 | 0.00 | 61 | 1010.6 |
| 20260507202031 | 59 | 265 | 5.0 | 13.0 | 0.00 | 0.00 | 0.00 | 60 | 1010.7 |
| 20260507201545 | 58 | 196 | 4.0 | 15.0 | 0.00 | 0.00 | 0.00 | 61 | 1011.0 |
| 20260507201029 | 58 | 280 | 4.0 | 15.0 | 0.00 | 0.00 | 0.00 | 63 | 1011.0 |
| 20260507200530 | 58 | 248 | 7.0 | 15.0 | 0.00 | 0.00 | 0.00 | 61 | 1011.1 |
| 20260507200044 | 58 | 212 | 5.0 | 13.0 | 0.00 | 0.00 | 0.00 | 63 | 1011.3 |
| 20260507195529 | 57 | 32 | 3.0 | 15.0 | 0.00 | 0.00 | 0.00 | 64 | 1011.4 |
| 20260507195030 | 57 | 200 | 5.0 | 17.0 | 0.00 | 0.00 | 0.00 | 62 | 1011.5 |
| 20260507194612 | 57 | 236 | 6.0 | 19.0 | 0.00 | 0.00 | 0.00 | 64 | 1011.7 |
| 20260507194029 | 56 | 276 | 6.0 | 19.0 | 0.00 | 0.00 | 0.00 | 63 | 1011.7 |
| 20260507193530 | 57 | 277 | 6.0 | 14.0 | 0.00 | 0.00 | 0.00 | 61 | 1011.8 |
| 20260507193042 | 57 | 151 | 6.0 | 12.0 | 0.00 | 0.00 | 0.00 | 62 | 1011.9 |
| 20260507192531 | 56 | 293 | 4.0 | 13.0 | 0.00 | 0.00 | 0.00 | 64 | 1012.1 |
| 20260507192033 | 56 | 319 | 4.0 | 14.0 | 0.00 | 0.00 | 0.00 | 65 | 1012.3 |
| 20260507191547 | 55 | 305 | 6.0 | 14.0 | 0.00 | 0.00 | 0.00 | 65 | 1012.2 |
| 20260507191031 | 55 | 213 | 5.0 | 16.0 | 0.00 | 0.00 | 0.00 | 64 | 1012.2 |
| 20260507190530 | 55 | 29 | 6.0 | 16.0 | 0.00 | 0.00 | 0.00 | 63 | 1012.3 |
| 20260507190040 | 55 | 276 | 4.0 | 17.0 | 0.00 | 0.00 | 0.00 | 63 | 1012.5 |
| 20260507185530 | 56 | 178 | 6.0 | 18.0 | 0.00 | 0.00 | 0.00 | 62 | 1012.6 |
| 20260507185029 | 56 | 213 | 8.0 | 18.0 | 0.00 | 0.00 | 0.00 | 61 | 1012.5 |
| 20260507184548 | 56 | 322 | 7.0 | 15.0 | 0.00 | 0.00 | 0.00 | 62 | 1012.5 |
| 20260507184028 | 56 | 133 | 7.0 | 18.0 | 0.00 | 0.00 | 0.00 | 63 | 1012.7 |
| 20260507183528 | 56 | 338 | 5.0 | 18.0 | 0.00 | 0.00 | 0.00 | 62 | 1012.6 |
| 20260507183045 | 56 | 214 | 6.0 | 15.0 | 0.00 | 0.00 | 0.00 | 60 | 1012.6 |
| 20260507182529 | 57 | 177 | 6.0 | 13.0 | 0.00 | 0.00 | 0.00 | 59 | 1012.5 |
| 20260507182030 | 57 | 300 | 4.0 | 15.0 | 0.00 | 0.00 | 0.00 | 56 | 1012.5 |
| 20260507181543 | 57 | 164 | 5.0 | 15.0 | 0.00 | 0.00 | 0.00 | 56 | 1012.7 |
| 20260507181031 | 57 | 242 | 6.0 | 12.0 | 0.00 | 0.00 | 0.00 | 54 | 1012.5 |
| 20260507180529 | 57 | 217 | 5.0 | 12.0 | 0.00 | 0.00 | 0.00 | 53 | 1012.4 |
| 20260507180042 | 58 | 194 | 5.0 | 13.0 | 0.00 | 0.00 | 0.00 | 51 | 1012.7 |
| 20260507175528 | 58 | 311 | 4.0 | 13.0 | 0.00 | 0.00 | 0.00 | 50 | 1012.5 |
| 20260507175028 | 57 | 187 | 6.0 | 13.0 | 0.00 | 0.00 | 0.00 | 51 | 1012.4 |
| 20260507174544 | 57 | 221 | 3.0 | 12.0 | 0.00 | 0.00 | 0.00 | 51 | 1012.7 |
| 20260507174027 | 57 | 150 | 5.0 | 12.0 | 0.00 | 0.00 | 0.00 | 50 | 1012.7 |
| 20260507173533 | 57 | 302 | 3.0 | 9.0 | 0.00 | 0.00 | 0.00 | 51 | 1012.9 |
| 20260507173041 | 57 | 240 | 3.0 | 8.0 | 0.00 | 0.00 | 0.00 | 48 | 1012.7 |
| 20260507172529 | 57 | 51 | 4.0 | 8.0 | 0.00 | 0.00 | 0.00 | 46 | 1012.8 |
| 20260507172028 | 57 | 78 | 3.0 | 12.0 | 0.00 | 0.00 | 0.00 | 47 | 1012.8 |
| 20260507171548 | 57 | 11 | 2.0 | 12.0 | 0.00 | 0.00 | 0.00 | 47 | 1013.0 |
| 20260507171028 | 58 | 227 | 3.0 | 10.0 | 0.00 | 0.00 | 0.00 | 46 | 1013.2 |
| 20260507170527 | 58 | 244 | 3.0 | 9.0 | 0.00 | 0.00 | 0.00 | 48 | 1013.3 |
| 20260507170044 | 58 | 259 | 4.0 | 11.0 | 0.00 | 0.00 | 0.00 | 47 | 1013.2 |
| 20260507165529 | 58 | 199 | 4.0 | 11.0 | 0.00 | 0.00 | 0.00 | 48 | 1013.2 |
| 20260507165027 | 58 | 217 | 1.0 | 9.0 | 0.00 | 0.00 | 0.00 | 47 | 1013.3 |
| 20260507164541 | 58 | 231 | 3.0 | 9.0 | 0.00 | 0.00 | 0.00 | 48 | 1013.3 |
| 20260507164028 | 58 | 195 | 4.0 | 9.0 | 0.00 | 0.00 | 0.00 | 46 | 1013.4 |
| 20260507163531 | 58 | 214 | 2.0 | 7.0 | 0.00 | 0.00 | 0.00 | 47 | 1013.5 |
| 20260507163043 | 59 | 314 | 3.0 | 7.0 | 0.00 | 0.00 | 0.00 | 47 | 1013.6 |
| 20260507162527 | 59 | 240 | 1.0 | 5.0 | 0.00 | 0.00 | 0.00 | 50 | 1013.8 |
| 20260507162028 | 58 | 134 | 3.0 | 7.0 | 0.00 | 0.00 | 0.00 | 49 | 1013.8 |
| 20260507161546 | 58 | 283 | 1.0 | 7.0 | 0.00 | 0.00 | 0.00 | 48 | 1013.9 |
| 20260507161028 | 58 | 243 | 2.0 | 9.0 | 0.00 | 0.00 | 0.00 | 52 | 1013.9 |
| 20260507160530 | 58 | 213 | 3.0 | 9.0 | 0.00 | 0.00 | 0.00 | 49 | 1014.1 |
| 20260507160048 | 58 | 174 | 2.0 | 6.0 | 0.00 | 0.00 | 0.00 | 51 | 1014.0 |
| 20260507155531 | 57 | 223 | 3.0 | 8.0 | 0.00 | 0.00 | 0.00 | 50 | 1014.2 |
| 20260507155028 | 57 | 314 | 2.0 | 9.0 | 0.00 | 0.00 | 0.00 | 51 | 1014.3 |
| 20260507154542 | 56 | 193 | 3.0 | 9.0 | 0.00 | 0.00 | 0.00 | 53 | 1014.3 |
| 20260507154030 | 56 | 170 | 2.0 | 8.0 | 0.00 | 0.00 | 0.00 | 51 | 1014.5 |
| 20260507153528 | 56 | 221 | 3.0 | 10.0 | 0.00 | 0.00 | 0.00 | 50 | 1014.5 |
| 20260507153042 | 56 | 210 | 4.0 | 10.0 | 0.00 | 0.00 | 0.00 | 51 | 1014.4 |
| 20260507152528 | 56 | 127 | 2.0 | 8.0 | 0.00 | 0.00 | 0.00 | 53 | 1014.4 |
| 20260507152028 | 56 | 136 | 3.0 | 8.0 | 0.00 | 0.00 | 0.00 | 50 | 1014.5 |
| 20260507151536 | 55 | 357 | 1.0 | 7.0 | 0.00 | 0.00 | 0.00 | 52 | 1014.5 |
| 20260507151028 | 55 | 141 | 1.0 | 7.0 | 0.00 | 0.00 | 0.00 | 55 | 1014.6 |
| 20260507150528 | 55 | 136 | 2.0 | 4.0 | 0.00 | 0.00 | 0.00 | 53 | 1014.5 |
| 20260507150043 | 55 | 230 | 1.0 | 8.0 | 0.00 | 0.00 | 0.00 | 52 | 1014.6 |
| 20260507145527 | 54 | 145 | 2.0 | 8.0 | 0.00 | 0.00 | 0.00 | 49 | 1014.6 |
| 20260507145029 | 54 | 205 | 1.0 | 5.0 | 0.00 | 0.00 | 0.00 | 54 | 1014.7 |
| 20260507144543 | 53 | 171 | 1.0 | 5.0 | 0.00 | 0.00 | 0.00 | 55 | 1014.9 |
| 20260507144031 | 53 | 259 | 2.0 | 5.0 | 0.00 | 0.00 | 0.00 | 53 | 1015.0 |